N828WW KNQX-MYMM

Flight info

Callsign N828WW
Flight time 2h 16m
Altitude 25000
Route VRGAS4 MTH DCT NICKO DCT BENIE
Aircraft BE60/L-SDFGRY/C

Departure

Time 2026-05-08 19:06
Airport Naval Air Station Key West/Boca Chica Field (KNQX)

Arrival

Time 2026-05-08 21:23
Airport Mayaguana Airport (MYMM)
Time Latitude Longitude Altitude Speed Heading
2026-05-08 18:58 24.57816 -81.68883 15 ft 0 kts 251°
2026-05-08 19:04 24.57808 -81.68891 42 ft 10 kts 205°
2026-05-08 19:04 24.57829 -81.69001 16 ft 35 kts 311°
2026-05-08 19:04 24.57927 -81.69159 18 ft 16 kts 252°
2026-05-08 19:05 24.57872 -81.69193 17 ft 5 kts 108°
2026-05-08 19:05 24.57867 -81.69184 17 ft 0 kts 126°
2026-05-08 19:05 24.57866 -81.69181 17 ft 8 kts 127°
2026-05-08 19:06 24.57668 -81.68926 14 ft 74 kts 132°
2026-05-08 19:06 24.57242 -81.68383 56 ft 104 kts 124°
2026-05-08 19:06 24.57083 -81.67667 449 ft 98 kts 71°
2026-05-08 19:06 24.57399 -81.66967 649 ft 110 kts 56°
2026-05-08 19:07 24.57799 -81.66224 924 ft 112 kts 62°
2026-05-08 19:07 24.58149 -81.65447 1248 ft 115 kts 64°
2026-05-08 19:07 24.58388 -81.64934 1549 ft 116 kts 58°
2026-05-08 19:07 24.58915 -81.63949 2090 ft 109 kts 58°
2026-05-08 19:08 24.59262 -81.63225 2493 ft 105 kts 60°
2026-05-08 19:08 24.59479 -81.62755 2757 ft 98 kts 58°
2026-05-08 19:08 24.59928 -81.61792 3036 ft 115 kts 59°
2026-05-08 19:08 24.60180 -81.61247 3193 ft 122 kts 59°
2026-05-08 19:09 24.60588 -81.60392 3428 ft 130 kts 58°
2026-05-08 19:09 24.61029 -81.59488 3672 ft 138 kts 58°
2026-05-08 19:09 24.61493 -81.58555 3889 ft 144 kts 58°
2026-05-08 19:09 24.61952 -81.57557 4148 ft 146 kts 66°
2026-05-08 19:10 24.62231 -81.56473 4470 ft 148 kts 71°
2026-05-08 19:10 24.62487 -81.55367 4793 ft 150 kts 72°
2026-05-08 19:10 24.62746 -81.54255 5111 ft 151 kts 71°
2026-05-08 19:10 24.63006 -81.53137 5430 ft 151 kts 72°
2026-05-08 19:11 24.63210 -81.52002 5734 ft 152 kts 79°
2026-05-08 19:11 24.63431 -81.50873 6058 ft 152 kts 72°
2026-05-08 19:11 24.63688 -81.49740 6359 ft 153 kts 73°
2026-05-08 19:11 24.63942 -81.48606 6651 ft 153 kts 73°
2026-05-08 19:12 24.64156 -81.47461 6927 ft 153 kts 80°
2026-05-08 19:12 24.64375 -81.46315 7209 ft 154 kts 75°
2026-05-08 19:12 24.64642 -81.45171 7486 ft 155 kts 74°
2026-05-08 19:12 24.64890 -81.44018 7759 ft 156 kts 82°
2026-05-08 19:13 24.65083 -81.42854 8080 ft 155 kts 75°
2026-05-08 19:13 24.65352 -81.41698 8363 ft 157 kts 75°
2026-05-08 19:13 24.65613 -81.40532 8657 ft 157 kts 79°
2026-05-08 19:13 24.65809 -81.39347 8959 ft 158 kts 76°
2026-05-08 19:14 24.66079 -81.38184 9281 ft 159 kts 76°
2026-05-08 19:14 24.66331 -81.37003 9560 ft 159 kts 83°
2026-05-08 19:14 24.66529 -81.35812 9897 ft 159 kts 76°
2026-05-08 19:14 24.66804 -81.34624 10167 ft 161 kts 76°
2026-05-08 19:15 24.67075 -81.33428 10441 ft 162 kts 76°
2026-05-08 19:15 24.67268 -81.32207 10697 ft 162 kts 78°
2026-05-08 19:15 24.67539 -81.30993 10955 ft 165 kts 76°
2026-05-08 19:15 24.67826 -81.29769 11213 ft 166 kts 76°
2026-05-08 19:16 24.68025 -81.28520 11475 ft 166 kts 78°
2026-05-08 19:16 24.68298 -81.27282 11726 ft 167 kts 76°
2026-05-08 19:16 24.68585 -81.26037 11980 ft 169 kts 75°
2026-05-08 19:16 24.68799 -81.24780 12231 ft 169 kts 79°
2026-05-08 19:17 24.69064 -81.23517 12487 ft 171 kts 75°
2026-05-08 19:17 24.69356 -81.22243 12740 ft 172 kts 75°
2026-05-08 19:17 24.69596 -81.20950 12989 ft 173 kts 81°
2026-05-08 19:17 24.69848 -81.19652 13253 ft 175 kts 75°
2026-05-08 19:18 24.70146 -81.18353 13504 ft 176 kts 75°
2026-05-08 19:18 24.70410 -81.17037 13747 ft 177 kts 81°
2026-05-08 19:18 24.70649 -81.15712 13991 ft 178 kts 75°
2026-05-08 19:18 24.70951 -81.14387 14219 ft 179 kts 74°
2026-05-08 19:19 24.71232 -81.13052 14437 ft 180 kts 81°
2026-05-08 19:19 24.71463 -81.11705 14687 ft 180 kts 74°
2026-05-08 19:19 24.71767 -81.10364 14907 ft 181 kts 74°
2026-05-08 19:19 24.72062 -81.09009 15129 ft 183 kts 79°
2026-05-08 19:20 24.72290 -81.07641 15378 ft 182 kts 74°
2026-05-08 19:20 24.72492 -81.06739 15523 ft 184 kts 73°
2026-05-08 19:20 24.72881 -81.04901 15833 ft 186 kts 83°
2026-05-08 19:20 24.72951 -81.03508 16118 ft 184 kts 81°
2026-05-08 19:21 24.73117 -81.02100 16355 ft 187 kts 79°
2026-05-08 19:21 24.73295 -81.00682 16604 ft 187 kts 79°
2026-05-08 19:21 24.73412 -80.99253 16844 ft 188 kts 83°
2026-05-08 19:21 24.73554 -80.97823 17087 ft 189 kts 79°
2026-05-08 19:22 24.73733 -80.96385 17309 ft 190 kts 79°
2026-05-08 19:22 24.73843 -80.94925 17540 ft 192 kts 83°
2026-05-08 19:22 24.73993 -80.93465 17772 ft 193 kts 79°
2026-05-08 19:22 24.74176 -80.91996 17997 ft 194 kts 78°
2026-05-08 19:23 24.74292 -80.90506 18233 ft 195 kts 82°
2026-05-08 19:23 24.74441 -80.89021 18455 ft 196 kts 78°
2026-05-08 19:23 24.74627 -80.87549 18633 ft 198 kts 77°
2026-05-08 19:23 24.74750 -80.86029 18823 ft 200 kts 83°
2026-05-08 19:24 24.74897 -80.84513 19032 ft 200 kts 78°
2026-05-08 19:24 24.75088 -80.82991 19234 ft 201 kts 78°
2026-05-08 19:24 24.75197 -80.81443 19430 ft 202 kts 81°
2026-05-08 19:24 24.75362 -80.79901 19623 ft 204 kts 78°
2026-05-08 19:25 24.75553 -80.78349 19817 ft 205 kts 78°
2026-05-08 19:25 24.75666 -80.76774 20009 ft 206 kts 81°
2026-05-08 19:25 24.75831 -80.75201 20194 ft 208 kts 78°
2026-05-08 19:25 24.76025 -80.73617 20372 ft 209 kts 78°
2026-05-08 19:26 24.76144 -80.72013 20540 ft 210 kts 82°
2026-05-08 19:26 24.76307 -80.70414 20711 ft 211 kts 78°
2026-05-08 19:26 24.76495 -80.68824 20860 ft 213 kts 78°
2026-05-08 19:26 24.76641 -80.67198 21001 ft 214 kts 83°
2026-05-08 19:27 24.76784 -80.65570 21156 ft 214 kts 78°
2026-05-08 19:27 24.76981 -80.63938 21280 ft 216 kts 78°
2026-05-08 19:27 24.77124 -80.62289 21403 ft 217 kts 83°
2026-05-08 19:27 24.77271 -80.60642 21532 ft 217 kts 78°
2026-05-08 19:28 24.77469 -80.58992 21644 ft 218 kts 78°
2026-05-08 19:28 24.77618 -80.57324 21744 ft 219 kts 83°
2026-05-08 19:28 24.77762 -80.55656 21863 ft 219 kts 78°
2026-05-08 19:28 24.77962 -80.53990 21950 ft 220 kts 78°
2026-05-08 19:29 24.78115 -80.52312 22040 ft 221 kts 83°
2026-05-08 19:29 24.78257 -80.50635 22146 ft 220 kts 78°
2026-05-08 19:29 24.78457 -80.48958 22219 ft 221 kts 78°
2026-05-08 19:29 24.78609 -80.47270 22285 ft 223 kts 83°
2026-05-08 19:30 24.78752 -80.45581 22376 ft 222 kts 78°
2026-05-08 19:30 24.78953 -80.43893 22435 ft 223 kts 78°
2026-05-08 19:30 24.79105 -80.42215 22486 ft 224 kts 83°
2026-05-08 19:30 24.79247 -80.40515 22566 ft 223 kts 78°
2026-05-08 19:31 24.79448 -80.38815 22619 ft 224 kts 78°
2026-05-08 19:31 24.79603 -80.37107 22659 ft 225 kts 83°
2026-05-08 19:31 24.79745 -80.35398 22728 ft 224 kts 78°
2026-05-08 19:31 24.79946 -80.33693 22767 ft 225 kts 78°
2026-05-08 19:32 24.80102 -80.31975 22795 ft 226 kts 83°
2026-05-08 19:32 24.80241 -80.30259 22854 ft 225 kts 79°
2026-05-08 19:32 24.80432 -80.28547 22885 ft 225 kts 78°
2026-05-08 19:32 24.80625 -80.26836 22924 ft 226 kts 81°
2026-05-08 19:33 24.80739 -80.25110 22968 ft 226 kts 79°
2026-05-08 19:33 24.80929 -80.23394 22986 ft 226 kts 78°
2026-05-08 19:33 24.81124 -80.21672 23000 ft 227 kts 82°
2026-05-08 19:33 24.81235 -80.19939 23045 ft 226 kts 79°
2026-05-08 19:34 24.81427 -80.18219 23054 ft 227 kts 78°
2026-05-08 19:34 24.81621 -80.16490 23064 ft 228 kts 81°
2026-05-08 19:34 24.81728 -80.14757 23141 ft 225 kts 79°
2026-05-08 19:34 24.81916 -80.13054 23208 ft 224 kts 77°
2026-05-08 19:35 24.82113 -80.11355 23260 ft 224 kts 80°
2026-05-08 19:35 24.82219 -80.09649 23324 ft 223 kts 79°
2026-05-08 19:35 24.82394 -80.07961 23390 ft 222 kts 78°
2026-05-08 19:35 24.82579 -80.06281 23458 ft 221 kts 78°
2026-05-08 19:36 24.82740 -80.04603 23507 ft 221 kts 83°
2026-05-08 19:36 24.82859 -80.02925 23583 ft 219 kts 79°
2026-05-08 19:36 24.83030 -80.01266 23645 ft 218 kts 78°
2026-05-08 19:36 24.83204 -79.99611 23700 ft 217 kts 78°
2026-05-08 19:37 24.83375 -79.97965 23756 ft 217 kts 78°
2026-05-08 19:37 24.83517 -79.96304 23806 ft 220 kts 82°
2026-05-08 19:37 24.83662 -79.94614 23882 ft 224 kts 78°
2026-05-08 19:37 24.83857 -79.92891 23950 ft 229 kts 77°
2026-05-08 19:38 24.83996 -79.91125 23997 ft 234 kts 81°
2026-05-08 19:38 24.84175 -79.89320 24000 ft 240 kts 77°
2026-05-08 19:38 24.84386 -79.87468 23986 ft 247 kts 81°
2026-05-08 19:38 24.84519 -79.85572 24000 ft 250 kts 78°
2026-05-08 19:39 24.84753 -79.83681 23985 ft 254 kts 79°
2026-05-08 19:39 24.84890 -79.81728 23990 ft 257 kts 81°
2026-05-08 19:39 24.85107 -79.79772 23992 ft 258 kts 77°
2026-05-08 19:39 24.85291 -79.77795 23981 ft 261 kts 81°
2026-05-08 19:40 24.85451 -79.75806 23995 ft 260 kts 77°
2026-05-08 19:40 24.85679 -79.73822 23977 ft 262 kts 80°
2026-05-08 19:40 24.85818 -79.71818 23986 ft 262 kts 80°
2026-05-08 19:40 24.86047 -79.69826 23981 ft 263 kts 78°
2026-05-08 19:41 24.86215 -79.67816 23978 ft 264 kts 81°
2026-05-08 19:41 24.86400 -79.65809 23989 ft 263 kts 76°
2026-05-08 19:41 24.86616 -79.63798 23976 ft 264 kts 80°
2026-05-08 19:41 24.86753 -79.61778 23982 ft 264 kts 81°
2026-05-08 19:42 24.86971 -79.59775 23982 ft 264 kts 77°
2026-05-08 19:42 24.87150 -79.57760 23976 ft 265 kts 81°
2026-05-08 19:42 24.87307 -79.55743 23990 ft 264 kts 77°
2026-05-08 19:42 24.87536 -79.53734 23973 ft 265 kts 80°
2026-05-08 19:43 24.87679 -79.51741 23978 ft 265 kts 81°
2026-05-08 19:43 24.87893 -79.49706 23982 ft 264 kts 77°
2026-05-08 19:43 24.88074 -79.47686 23975 ft 265 kts 81°
2026-05-08 19:43 24.88225 -79.45694 23989 ft 264 kts 78°
2026-05-08 19:44 24.88454 -79.43685 23974 ft 265 kts 80°
2026-05-08 19:44 24.88600 -79.41660 23979 ft 265 kts 81°
2026-05-08 19:44 24.88807 -79.39647 23983 ft 264 kts 77°
2026-05-08 19:44 24.88990 -79.37631 23978 ft 265 kts 81°
2026-05-08 19:45 24.89139 -79.35612 23990 ft 264 kts 78°
2026-05-08 19:45 24.89362 -79.33609 23975 ft 264 kts 79°
2026-05-08 19:45 24.89506 -79.31587 23981 ft 264 kts 80°
2026-05-08 19:45 24.89721 -79.29585 23981 ft 264 kts 77°
2026-05-08 19:46 24.89892 -79.27567 23978 ft 264 kts 81°
2026-05-08 19:46 24.90050 -79.25549 23992 ft 263 kts 77°
2026-05-08 19:46 24.90421 -79.21527 23981 ft 264 kts 81°
2026-05-08 19:47 24.90606 -79.19545 23991 ft 263 kts 76°
2026-05-08 19:47 24.90801 -79.17534 23977 ft 264 kts 80°
2026-05-08 19:47 24.90940 -79.15512 23986 ft 264 kts 79°
2026-05-08 19:47 24.91162 -79.13509 23978 ft 264 kts 78°
2026-05-08 19:48 24.91316 -79.11489 23976 ft 264 kts 81°
2026-05-08 19:48 24.91499 -79.09480 23988 ft 263 kts 76°
2026-05-08 19:48 24.91696 -79.07470 23974 ft 264 kts 80°
2026-05-08 19:48 24.91834 -79.05452 23987 ft 264 kts 79°
2026-05-08 19:49 24.92058 -79.03452 23972 ft 264 kts 78°
2026-05-08 19:49 24.92214 -79.01435 23974 ft 264 kts 80°
2026-05-08 19:49 24.92376 -78.99424 23987 ft 263 kts 77°
2026-05-08 19:49 24.92584 -78.97420 23972 ft 264 kts 80°
2026-05-08 19:50 24.92717 -78.95405 23982 ft 263 kts 79°
2026-05-08 19:50 24.92937 -78.93415 23975 ft 263 kts 78°
2026-05-08 19:50 24.93088 -78.91406 23977 ft 263 kts 81°
2026-05-08 19:50 24.93259 -78.89409 23989 ft 261 kts 76°
2026-05-08 19:51 24.93457 -78.87413 23974 ft 262 kts 81°
2026-05-08 19:51 24.93589 -78.85410 23986 ft 261 kts 79°
2026-05-08 19:51 24.93810 -78.83422 23974 ft 262 kts 79°
2026-05-08 19:51 24.93951 -78.81424 23978 ft 262 kts 81°
2026-05-08 19:52 24.94134 -78.79433 23988 ft 261 kts 76°
2026-05-08 19:52 24.94318 -78.77440 23974 ft 262 kts 81°
2026-05-08 19:52 24.94451 -78.75464 23988 ft 261 kts 78°
2026-05-08 19:52 24.94672 -78.73478 23973 ft 262 kts 79°
2026-05-08 19:53 24.94807 -78.71452 23978 ft 262 kts 81°
2026-05-08 19:53 24.94999 -78.69486 23985 ft 261 kts 77°
2026-05-08 19:53 24.95172 -78.67489 23970 ft 262 kts 80°
2026-05-08 19:53 24.95312 -78.65492 23986 ft 260 kts 77°
2026-05-08 19:54 24.95527 -78.63510 23970 ft 261 kts 79°
2026-05-08 19:54 24.95656 -78.61512 23976 ft 261 kts 81°
2026-05-08 19:54 24.95856 -78.59533 23978 ft 260 kts 77°
2026-05-08 19:54 24.96017 -78.57540 23973 ft 261 kts 81°
2026-05-08 19:55 24.96164 -78.55550 23988 ft 260 kts 77°
2026-05-08 19:55 24.96372 -78.53569 23970 ft 261 kts 80°
2026-05-08 19:55 24.96495 -78.51598 23978 ft 261 kts 80°
2026-05-08 19:55 24.96702 -78.49621 23975 ft 260 kts 78°
2026-05-08 19:56 24.96853 -78.47629 23974 ft 261 kts 81°
2026-05-08 19:56 24.97007 -78.45644 23987 ft 260 kts 76°
2026-05-08 19:56 24.97207 -78.43659 23971 ft 261 kts 80°
2026-05-08 19:56 24.97330 -78.41665 23981 ft 260 kts 79°
2026-05-08 19:57 24.97471 -78.40330 23982 ft 260 kts 76°
2026-05-08 19:57 24.97645 -78.38343 23972 ft 261 kts 81°
2026-05-08 19:57 24.97777 -78.36354 23986 ft 260 kts 78°
2026-05-08 19:57 24.97990 -78.34373 23971 ft 261 kts 79°
2026-05-08 19:58 24.98117 -78.32380 23977 ft 261 kts 81°
2026-05-08 19:58 24.98308 -78.30399 23981 ft 260 kts 77°
2026-05-08 19:58 24.98471 -78.28408 23973 ft 261 kts 81°
2026-05-08 19:58 24.98605 -78.26444 23987 ft 260 kts 77°
2026-05-08 19:59 24.98814 -78.24463 23970 ft 261 kts 80°
2026-05-08 19:59 24.98937 -78.22471 23976 ft 261 kts 81°
2026-05-08 19:59 24.99134 -78.20489 23978 ft 260 kts 77°
2026-05-08 19:59 24.99268 -78.18492 23958 ft 262 kts 86°
2026-05-08 20:00 24.99017 -78.16502 23946 ft 263 kts 102°
2026-05-08 20:00 24.98432 -78.14592 23970 ft 262 kts 107°
2026-05-08 20:00 24.97802 -78.12705 23981 ft 262 kts 106°
2026-05-08 20:00 24.97285 -78.10779 23980 ft 262 kts 102°
2026-05-08 20:01 24.96729 -78.08860 23971 ft 263 kts 106°
2026-05-08 20:01 24.96138 -78.06952 23984 ft 262 kts 103°
2026-05-08 20:01 24.95628 -78.05017 23968 ft 263 kts 105°
2026-05-08 20:01 24.95042 -78.03132 23973 ft 263 kts 106°
2026-05-08 20:02 24.94503 -78.01204 23980 ft 263 kts 102°
2026-05-08 20:02 24.93950 -77.99286 23969 ft 263 kts 106°
2026-05-08 20:02 24.93360 -77.97378 23983 ft 262 kts 103°
2026-05-08 20:02 24.92847 -77.95446 23965 ft 263 kts 104°
2026-05-08 20:03 24.92252 -77.93542 23974 ft 263 kts 105°
2026-05-08 20:03 24.91722 -77.91621 23976 ft 263 kts 102°
2026-05-08 20:03 24.91161 -77.89703 23969 ft 263 kts 105°
2026-05-08 20:03 24.90573 -77.87798 23983 ft 262 kts 103°
2026-05-08 20:04 24.90058 -77.85868 23967 ft 263 kts 104°
2026-05-08 20:04 24.89462 -77.83966 23973 ft 262 kts 106°
2026-05-08 20:04 24.88930 -77.82047 23974 ft 262 kts 102°
2026-05-08 20:04 24.88368 -77.80136 23985 ft 263 kts 106°
2026-05-08 20:05 24.87784 -77.78234 24000 ft 262 kts 102°
2026-05-08 20:05 24.87266 -77.76307 23983 ft 263 kts 105°
2026-05-08 20:05 24.86668 -77.74409 23989 ft 263 kts 105°
2026-05-08 20:05 24.86139 -77.72486 23991 ft 262 kts 102°
2026-05-08 20:06 24.85571 -77.70575 23986 ft 263 kts 106°
2026-05-08 20:06 24.84987 -77.68669 23999 ft 262 kts 102°
2026-05-08 20:06 24.84465 -77.66741 23982 ft 263 kts 105°
2026-05-08 20:06 24.83865 -77.64844 23990 ft 263 kts 105°
2026-05-08 20:07 24.83340 -77.62923 23990 ft 263 kts 102°
2026-05-08 20:07 24.82774 -77.61031 23984 ft 263 kts 106°
2026-05-08 20:07 24.82186 -77.59128 23997 ft 262 kts 102°
2026-05-08 20:07 24.81667 -77.57201 23979 ft 263 kts 104°
2026-05-08 20:08 24.81068 -77.55300 23984 ft 263 kts 105°
2026-05-08 20:08 24.80530 -77.53380 23986 ft 262 kts 102°
2026-05-08 20:08 24.79966 -77.51471 23980 ft 262 kts 105°
2026-05-08 20:08 24.79375 -77.49573 23993 ft 261 kts 102°
2026-05-08 20:09 24.78857 -77.47653 23977 ft 262 kts 104°
2026-05-08 20:09 24.78258 -77.45757 23982 ft 262 kts 105°
2026-05-08 20:09 24.77721 -77.43845 23986 ft 262 kts 101°
2026-05-08 20:09 24.77155 -77.41937 23978 ft 262 kts 105°
2026-05-08 20:10 24.76572 -77.40068 23992 ft 261 kts 102°
2026-05-08 20:10 24.76045 -77.38121 23974 ft 262 kts 104°
2026-05-08 20:10 24.75453 -77.36251 23980 ft 262 kts 105°
2026-05-08 20:10 24.74913 -77.34342 23984 ft 261 kts 101°
2026-05-08 20:11 24.74348 -77.32435 23974 ft 262 kts 105°
2026-05-08 20:11 24.73754 -77.30538 23988 ft 261 kts 102°
2026-05-08 20:11 24.73235 -77.28622 23971 ft 262 kts 104°
2026-05-08 20:11 24.72636 -77.26736 23975 ft 262 kts 105°
2026-05-08 20:12 24.72096 -77.24824 23980 ft 261 kts 102°
2026-05-08 20:12 24.71533 -77.22918 23972 ft 262 kts 105°
2026-05-08 20:12 24.70934 -77.21025 23947 ft 263 kts 102°
2026-05-08 20:12 24.70413 -77.19067 23779 ft 271 kts 102°
2026-05-08 20:13 24.69825 -77.17073 23607 ft 277 kts 103°
2026-05-08 20:13 24.69225 -77.15049 23405 ft 281 kts 103°
2026-05-08 20:13 24.68640 -77.13015 23200 ft 284 kts 102°
2026-05-08 20:13 24.68049 -77.10929 22981 ft 286 kts 103°
2026-05-08 20:14 24.67445 -77.08869 22968 ft 281 kts 103°
2026-05-08 20:14 24.66830 -77.06851 22969 ft 276 kts 104°
2026-05-08 20:14 24.66211 -77.04868 22970 ft 273 kts 104°
2026-05-08 20:14 24.65597 -77.02907 22972 ft 270 kts 104°
2026-05-08 20:15 24.64996 -77.00964 22972 ft 268 kts 103°
2026-05-08 20:15 24.64404 -76.99029 22974 ft 266 kts 103°
2026-05-08 20:15 24.63820 -76.97104 22975 ft 265 kts 103°
2026-05-08 20:15 24.63271 -76.95176 22972 ft 264 kts 103°
2026-05-08 20:16 24.62688 -76.93265 22978 ft 264 kts 104°
2026-05-08 20:16 24.62101 -76.91361 22981 ft 263 kts 103°
2026-05-08 20:16 24.61563 -76.89440 22974 ft 263 kts 103°
2026-05-08 20:16 24.60976 -76.87541 22979 ft 262 kts 104°
2026-05-08 20:17 24.60391 -76.85644 22989 ft 261 kts 101°
2026-05-08 20:17 24.59857 -76.83734 22974 ft 262 kts 103°
2026-05-08 20:17 24.59266 -76.81840 22980 ft 262 kts 103°
2026-05-08 20:17 24.58685 -76.79945 22990 ft 261 kts 101°
2026-05-08 20:18 24.58149 -76.78040 22978 ft 262 kts 103°
2026-05-08 20:18 24.57555 -76.76148 22982 ft 262 kts 104°
2026-05-08 20:18 24.56982 -76.74256 22993 ft 260 kts 100°
2026-05-08 20:18 24.56437 -76.72350 22978 ft 261 kts 103°
2026-05-08 20:19 24.55841 -76.70463 22982 ft 261 kts 104°
2026-05-08 20:19 24.55288 -76.68593 22990 ft 260 kts 101°
2026-05-08 20:19 24.54733 -76.66696 22979 ft 261 kts 103°
2026-05-08 20:19 24.54136 -76.64813 22983 ft 261 kts 104°
2026-05-08 20:20 24.53588 -76.62916 22983 ft 261 kts 101°
2026-05-08 20:20 24.53020 -76.61025 22980 ft 261 kts 104°
2026-05-08 20:20 24.52421 -76.59141 22983 ft 261 kts 103°
2026-05-08 20:20 24.51883 -76.57242 22979 ft 261 kts 102°
2026-05-08 20:21 24.51304 -76.55354 22981 ft 261 kts 104°
2026-05-08 20:21 24.50706 -76.53471 22985 ft 261 kts 103°
2026-05-08 20:21 24.50172 -76.51569 22977 ft 261 kts 102°
2026-05-08 20:21 24.49584 -76.49682 22985 ft 261 kts 104°
2026-05-08 20:22 24.48991 -76.47799 22993 ft 261 kts 102°
2026-05-08 20:22 24.48457 -76.45897 22980 ft 261 kts 103°
2026-05-08 20:22 24.47865 -76.44014 22985 ft 261 kts 103°
2026-05-08 20:22 24.47469 -76.42768 22986 ft 261 kts 103°
2026-05-08 20:23 24.46740 -76.40234 22980 ft 261 kts 103°
2026-05-08 20:23 24.46144 -76.38354 22985 ft 261 kts 104°
2026-05-08 20:23 24.45567 -76.36471 22996 ft 260 kts 100°
2026-05-08 20:23 24.45009 -76.34580 22973 ft 261 kts 105°
2026-05-08 20:24 24.44254 -76.32762 22962 ft 262 kts 115°
2026-05-08 20:24 24.43278 -76.31072 22977 ft 262 kts 120°
2026-05-08 20:24 24.42252 -76.29417 22984 ft 262 kts 120°
2026-05-08 20:24 24.41268 -76.27766 22993 ft 262 kts 116°
2026-05-08 20:25 24.40330 -76.26023 22980 ft 263 kts 117°
2026-05-08 20:25 24.39354 -76.24362 22985 ft 262 kts 119°
2026-05-08 20:25 24.38362 -76.22681 22991 ft 262 kts 117°
2026-05-08 20:25 24.37428 -76.20965 22979 ft 263 kts 117°
2026-05-08 20:26 24.36442 -76.19282 22980 ft 262 kts 118°
2026-05-08 20:26 24.35454 -76.17600 22990 ft 262 kts 116°
2026-05-08 20:26 24.34519 -76.15888 22977 ft 262 kts 117°
2026-05-08 20:26 24.33529 -76.14204 22989 ft 262 kts 118°
2026-05-08 20:27 24.32546 -76.12520 22991 ft 262 kts 115°
2026-05-08 20:27 24.31607 -76.10809 22977 ft 262 kts 117°
2026-05-08 20:27 24.30620 -76.09132 22982 ft 262 kts 118°
2026-05-08 20:27 24.29635 -76.07451 22989 ft 261 kts 116°
2026-05-08 20:28 24.28698 -76.05745 22977 ft 262 kts 117°
2026-05-08 20:28 24.27709 -76.04064 22982 ft 262 kts 118°
2026-05-08 20:28 24.26726 -76.02385 22991 ft 261 kts 115°
2026-05-08 20:28 24.25787 -76.00677 22977 ft 262 kts 117°
2026-05-08 20:29 24.24797 -75.98999 22985 ft 262 kts 118°
2026-05-08 20:29 24.23815 -75.97322 22993 ft 261 kts 115°
2026-05-08 20:29 24.22874 -75.95614 22980 ft 262 kts 117°
2026-05-08 20:29 24.21886 -75.93939 22985 ft 262 kts 118°
2026-05-08 20:30 24.20915 -75.92286 22992 ft 261 kts 116°
2026-05-08 20:30 24.19976 -75.90581 22980 ft 262 kts 117°
2026-05-08 20:30 24.18987 -75.88906 22985 ft 262 kts 118°
2026-05-08 20:30 24.18003 -75.87230 22993 ft 261 kts 116°
2026-05-08 20:31 24.17063 -75.85526 22975 ft 262 kts 117°
2026-05-08 20:31 24.16072 -75.83851 22979 ft 262 kts 118°
2026-05-08 20:31 24.15087 -75.82175 22987 ft 261 kts 116°
2026-05-08 20:31 24.14146 -75.80470 22975 ft 262 kts 117°
2026-05-08 20:32 24.13155 -75.78795 22980 ft 262 kts 118°
2026-05-08 20:32 24.12169 -75.77121 22985 ft 261 kts 116°
2026-05-08 20:32 24.11228 -75.75421 22975 ft 262 kts 117°
2026-05-08 20:32 24.10243 -75.73749 22979 ft 261 kts 117°
2026-05-08 20:33 24.09258 -75.72085 22983 ft 261 kts 117°
2026-05-08 20:33 24.08313 -75.70385 22978 ft 261 kts 116°
2026-05-08 20:33 24.07335 -75.68713 22981 ft 261 kts 117°
2026-05-08 20:33 24.06345 -75.67048 22983 ft 261 kts 117°
2026-05-08 20:34 24.05402 -75.65358 22975 ft 261 kts 116°
2026-05-08 20:34 24.04427 -75.63686 22978 ft 261 kts 118°
2026-05-08 20:34 24.02492 -75.60337 22977 ft 260 kts 116°
2026-05-08 20:35 24.01518 -75.58664 22978 ft 261 kts 118°
2026-05-08 20:35 24.00529 -75.57004 22980 ft 261 kts 117°
2026-05-08 20:35 23.99579 -75.55321 22979 ft 260 kts 116°
2026-05-08 20:35 23.98608 -75.53645 22977 ft 261 kts 118°
2026-05-08 20:36 23.97618 -75.51985 22980 ft 261 kts 117°
2026-05-08 20:36 23.96661 -75.50305 22982 ft 260 kts 115°
2026-05-08 20:36 23.95697 -75.48627 22982 ft 261 kts 117°
2026-05-08 20:36 23.94706 -75.46966 22985 ft 261 kts 117°
2026-05-08 20:37 23.93740 -75.45292 22990 ft 260 kts 115°
2026-05-08 20:37 23.92781 -75.43606 22979 ft 261 kts 117°
2026-05-08 20:37 23.91792 -75.41948 22983 ft 261 kts 117°
2026-05-08 20:37 23.90813 -75.40284 22990 ft 260 kts 115°
2026-05-08 20:38 23.89866 -75.38598 22975 ft 260 kts 117°
2026-05-08 20:38 23.88881 -75.36938 22979 ft 260 kts 117°
2026-05-08 20:38 23.87897 -75.35282 22983 ft 260 kts 117°
2026-05-08 20:38 23.86955 -75.33599 22978 ft 260 kts 116°
2026-05-08 20:39 23.85974 -75.31940 22982 ft 260 kts 117°
2026-05-08 20:39 23.84988 -75.30286 22983 ft 260 kts 117°
2026-05-08 20:39 23.84041 -75.28610 22979 ft 260 kts 116°
2026-05-08 20:39 23.83067 -75.26946 22980 ft 260 kts 117°
2026-05-08 20:40 23.82079 -75.25293 22982 ft 260 kts 117°
2026-05-08 20:40 23.81120 -75.23622 22986 ft 259 kts 115°
2026-05-08 20:40 23.80157 -75.21953 22979 ft 260 kts 117°
2026-05-08 20:40 23.79168 -75.20300 22985 ft 260 kts 117°
2026-05-08 20:41 23.78194 -75.18641 22991 ft 259 kts 115°
2026-05-08 20:41 23.77245 -75.16964 22978 ft 260 kts 117°
2026-05-08 20:41 23.76258 -75.15313 22982 ft 260 kts 117°
2026-05-08 20:41 23.75272 -75.13658 22984 ft 260 kts 117°
2026-05-08 20:42 23.74341 -75.12001 22977 ft 260 kts 117°
2026-05-08 20:42 23.73358 -75.10345 22978 ft 260 kts 117°
2026-05-08 20:42 23.72362 -75.08695 22985 ft 260 kts 117°
2026-05-08 20:42 23.71428 -75.07012 22977 ft 260 kts 116°
2026-05-08 20:43 23.70449 -75.05354 22980 ft 260 kts 117°
2026-05-08 20:43 23.69463 -75.03704 22982 ft 260 kts 117°
2026-05-08 20:43 23.68479 -75.02049 22982 ft 259 kts 117°
2026-05-08 20:43 23.67505 -75.00395 22987 ft 259 kts 116°
2026-05-08 20:44 23.66865 -74.99267 22977 ft 259 kts 117°
2026-05-08 20:44 23.65884 -74.97616 22981 ft 259 kts 117°
2026-05-08 20:44 23.64904 -74.95964 22988 ft 259 kts 116°
2026-05-08 20:44 23.63962 -74.94293 22978 ft 259 kts 116°
2026-05-08 20:45 23.62977 -74.92647 22979 ft 259 kts 117°
2026-05-08 20:45 23.61992 -74.91007 22982 ft 259 kts 117°
2026-05-08 20:45 23.61042 -74.89341 22979 ft 258 kts 116°
2026-05-08 20:45 23.60085 -74.87714 22980 ft 259 kts 117°
2026-05-08 20:46 23.59099 -74.86073 22984 ft 259 kts 117°
2026-05-08 20:46 23.58121 -74.84425 22987 ft 258 kts 115°
2026-05-08 20:46 23.57174 -74.82762 22978 ft 259 kts 116°
2026-05-08 20:46 23.56193 -74.81118 22981 ft 259 kts 117°
2026-05-08 20:47 23.55211 -74.79479 22982 ft 258 kts 117°
2026-05-08 20:47 23.54253 -74.77825 22983 ft 258 kts 115°
2026-05-08 20:47 23.53288 -74.76171 22980 ft 259 kts 117°
2026-05-08 20:47 23.52305 -74.74533 22982 ft 258 kts 117°
2026-05-08 20:48 23.51323 -74.72890 22982 ft 258 kts 117°
2026-05-08 20:48 23.50375 -74.71229 22978 ft 258 kts 116°
2026-05-08 20:48 23.49397 -74.69585 22981 ft 259 kts 117°
2026-05-08 20:48 23.48412 -74.67946 22982 ft 258 kts 117°
2026-05-08 20:49 23.47440 -74.66301 22987 ft 258 kts 115°
2026-05-08 20:49 23.46486 -74.64643 22979 ft 258 kts 117°
2026-05-08 20:49 23.45503 -74.63004 22981 ft 258 kts 117°
2026-05-08 20:49 23.44520 -74.61364 22982 ft 258 kts 117°
2026-05-08 20:50 23.43560 -74.59714 22985 ft 258 kts 115°
2026-05-08 20:50 23.42594 -74.58064 22979 ft 259 kts 117°
2026-05-08 20:50 23.41612 -74.56416 22982 ft 258 kts 116°
2026-05-08 20:50 23.40648 -74.54767 22980 ft 258 kts 116°
2026-05-08 20:51 23.39672 -74.53124 22981 ft 259 kts 117°
2026-05-08 20:51 23.38687 -74.51484 22981 ft 259 kts 117°
2026-05-08 20:51 23.37716 -74.49861 22982 ft 259 kts 117°
2026-05-08 20:51 23.36737 -74.48217 22982 ft 259 kts 117°
2026-05-08 20:52 23.35760 -74.46570 22981 ft 259 kts 117°
2026-05-08 20:52 23.34784 -74.44923 22981 ft 259 kts 117°
2026-05-08 20:52 23.33807 -74.43275 22981 ft 259 kts 117°
2026-05-08 20:52 23.32830 -74.41627 22981 ft 259 kts 117°
2026-05-08 20:53 23.31851 -74.39977 22981 ft 259 kts 117°
2026-05-08 20:53 23.30873 -74.38329 22981 ft 259 kts 117°
2026-05-08 20:53 23.29896 -74.36684 22981 ft 259 kts 117°
2026-05-08 20:53 23.28919 -74.35038 22983 ft 259 kts 116°
2026-05-08 20:54 23.27943 -74.33390 22981 ft 259 kts 116°
2026-05-08 20:54 23.26965 -74.31745 22978 ft 259 kts 116°
2026-05-08 20:54 23.25989 -74.30104 22981 ft 258 kts 116°
2026-05-08 20:54 23.25014 -74.28463 22981 ft 258 kts 116°
2026-05-08 20:55 23.24037 -74.26823 22981 ft 258 kts 116°
2026-05-08 20:55 23.23063 -74.25189 22981 ft 258 kts 116°
2026-05-08 20:55 23.22088 -74.23553 22981 ft 258 kts 116°
2026-05-08 20:55 23.21113 -74.21916 22981 ft 258 kts 116°
2026-05-08 20:56 23.20137 -74.20281 22984 ft 258 kts 116°
2026-05-08 20:56 23.19163 -74.18647 22981 ft 258 kts 116°
2026-05-08 20:56 23.18188 -74.17012 22981 ft 258 kts 116°
2026-05-08 20:56 23.17214 -74.15378 22981 ft 258 kts 116°
2026-05-08 20:57 23.16239 -74.13743 22982 ft 258 kts 116°
2026-05-08 20:57 23.15265 -74.12110 22981 ft 258 kts 116°
2026-05-08 20:57 23.14289 -74.10476 22981 ft 258 kts 116°
2026-05-08 20:57 23.13314 -74.08842 22981 ft 258 kts 116°
2026-05-08 20:58 23.12339 -74.07209 22981 ft 258 kts 116°
2026-05-08 20:58 23.11363 -74.05577 22981 ft 258 kts 116°
2026-05-08 20:58 23.10400 -74.03966 22981 ft 258 kts 116°
2026-05-08 20:58 23.09412 -74.02313 22981 ft 258 kts 116°
2026-05-08 20:59 23.08449 -74.00703 22981 ft 258 kts 116°
2026-05-08 20:59 23.07474 -73.99071 22981 ft 257 kts 116°
2026-05-08 20:59 23.06501 -73.97440 22981 ft 257 kts 116°
2026-05-08 20:59 23.05525 -73.95810 22981 ft 257 kts 116°
2026-05-08 21:00 23.04555 -73.94152 22716 ft 267 kts 115°
2026-05-08 21:00 23.03564 -73.92394 22282 ft 278 kts 114°
2026-05-08 21:00 23.02560 -73.90570 21845 ft 285 kts 114°
2026-05-08 21:00 23.01530 -73.88707 21402 ft 290 kts 114°
2026-05-08 21:01 23.00486 -73.86822 20949 ft 293 kts 114°
2026-05-08 21:01 22.99433 -73.84926 20511 ft 294 kts 114°
2026-05-08 21:01 22.98367 -73.83022 20062 ft 295 kts 115°
2026-05-08 21:01 22.97293 -73.81123 19618 ft 295 kts 115°
2026-05-08 21:02 22.96210 -73.79242 19177 ft 293 kts 115°
2026-05-08 21:02 22.95118 -73.77390 18740 ft 290 kts 116°
2026-05-08 21:02 22.94028 -73.75561 18304 ft 288 kts 116°
2026-05-08 21:02 22.92932 -73.73752 17816 ft 285 kts 117°
2026-05-08 21:03 22.91844 -73.71974 17327 ft 281 kts 117°
2026-05-08 21:03 22.90774 -73.70218 16857 ft 277 kts 117°
2026-05-08 21:03 22.89716 -73.68483 16389 ft 274 kts 117°
2026-05-08 21:03 22.88673 -73.66774 15929 ft 270 kts 117°
2026-05-08 21:04 22.87650 -73.65091 15486 ft 265 kts 117°
2026-05-08 21:04 22.86645 -73.63430 15044 ft 261 kts 117°
2026-05-08 21:04 22.85642 -73.61803 14614 ft 257 kts 118°
2026-05-08 21:04 22.84651 -73.60209 14174 ft 252 kts 118°
2026-05-08 21:05 22.83708 -73.58637 13694 ft 246 kts 117°
2026-05-08 21:05 22.82720 -73.57135 13152 ft 242 kts 120°
2026-05-08 21:05 22.81828 -73.55622 12713 ft 233 kts 106°
2026-05-08 21:05 22.81461 -73.53950 12281 ft 226 kts 96°
2026-05-08 21:06 22.81164 -73.52307 11801 ft 225 kts 99°
2026-05-08 21:06 22.80691 -73.50686 11305 ft 224 kts 106°
2026-05-08 21:06 22.79948 -73.49236 11001 ft 221 kts 128°
2026-05-08 21:06 22.78964 -73.47935 10477 ft 223 kts 114°
2026-05-08 21:07 22.78375 -73.46487 10475 ft 198 kts 104°
2026-05-08 21:07 22.77934 -73.45140 10284 ft 192 kts 115°
2026-05-08 21:07 22.77118 -73.43967 9806 ft 198 kts 124°
2026-05-08 21:07 22.76125 -73.42927 9500 ft 197 kts 138°
2026-05-08 21:08 22.75078 -73.42028 9402 ft 186 kts 140°
2026-05-08 21:08 22.74055 -73.41098 8847 ft 194 kts 129°
2026-05-08 21:08 22.73111 -73.40053 8411 ft 196 kts 137°
2026-05-08 21:08 22.72028 -73.39177 8061 ft 196 kts 138°
2026-05-08 21:09 22.71257 -73.37991 7806 ft 192 kts 111°
2026-05-08 21:09 22.70790 -73.36662 7654 ft 187 kts 109°
2026-05-08 21:09 22.70323 -73.35359 7483 ft 185 kts 110°
2026-05-08 21:09 22.69854 -73.34071 7316 ft 183 kts 110°
2026-05-08 21:10 22.69389 -73.32791 7151 ft 182 kts 110°
2026-05-08 21:10 22.68926 -73.31517 6985 ft 181 kts 110°
2026-05-08 21:10 22.68467 -73.30249 6821 ft 181 kts 110°
2026-05-08 21:10 22.68010 -73.28981 6658 ft 180 kts 110°
2026-05-08 21:11 22.67552 -73.27717 6492 ft 180 kts 110°
2026-05-08 21:11 22.67098 -73.26455 6325 ft 180 kts 110°
2026-05-08 21:11 22.66646 -73.25195 6151 ft 179 kts 110°
2026-05-08 21:11 22.66196 -73.23938 5979 ft 179 kts 110°
2026-05-08 21:12 22.65746 -73.22685 5808 ft 178 kts 110°
2026-05-08 21:12 22.65300 -73.21435 5642 ft 178 kts 110°
2026-05-08 21:12 22.64853 -73.20186 5469 ft 178 kts 110°
2026-05-08 21:12 22.64407 -73.18939 5298 ft 177 kts 110°
2026-05-08 21:13 22.63965 -73.17696 5132 ft 177 kts 110°
2026-05-08 21:13 22.63523 -73.16459 4964 ft 177 kts 110°
2026-05-08 21:13 22.63081 -73.15218 4796 ft 176 kts 110°
2026-05-08 21:13 22.62645 -73.13977 4622 ft 176 kts 110°
2026-05-08 21:14 22.62213 -73.12741 4448 ft 175 kts 110°
2026-05-08 21:14 22.61782 -73.11507 4275 ft 175 kts 110°
2026-05-08 21:14 22.61354 -73.10278 4105 ft 174 kts 110°
2026-05-08 21:14 22.60933 -73.09054 3934 ft 174 kts 110°
2026-05-08 21:15 22.60515 -73.07824 3763 ft 174 kts 110°
2026-05-08 21:15 22.60061 -73.06614 3592 ft 174 kts 116°
2026-05-08 21:15 22.59487 -73.05466 3425 ft 174 kts 119°
2026-05-08 21:15 22.58902 -73.04325 3259 ft 173 kts 119°
2026-05-08 21:16 22.58278 -73.03200 3045 ft 175 kts 121°
2026-05-08 21:16 22.57639 -73.02071 2827 ft 176 kts 120°
2026-05-08 21:16 22.56961 -73.00978 2609 ft 175 kts 128°
2026-05-08 21:16 22.56203 -72.99971 2387 ft 174 kts 128°
2026-05-08 21:17 22.55441 -72.98960 2167 ft 174 kts 128°
2026-05-08 21:17 22.54662 -72.97957 2012 ft 172 kts 129°
2026-05-08 21:17 22.53912 -72.97000 2004 ft 163 kts 129°
2026-05-08 21:17 22.53190 -72.96073 1970 ft 160 kts 129°
2026-05-08 21:18 22.52467 -72.95136 1837 ft 163 kts 129°
2026-05-08 21:18 22.51739 -72.94190 1721 ft 164 kts 129°
2026-05-08 21:18 22.51011 -72.93236 1597 ft 165 kts 129°
2026-05-08 21:18 22.50281 -72.92282 1474 ft 165 kts 129°
2026-05-08 21:19 22.49523 -72.91357 1360 ft 165 kts 137°
2026-05-08 21:19 22.48467 -72.90927 1231 ft 169 kts 179°
2026-05-08 21:19 22.47310 -72.91146 1116 ft 169 kts 189°
2026-05-08 21:19 22.46162 -72.91422 1019 ft 167 kts 190°
2026-05-08 21:20 22.45100 -72.91886 1003 ft 166 kts 219°
2026-05-08 21:20 22.44350 -72.92822 1002 ft 164 kts 230°
2026-05-08 21:20 22.43659 -72.93793 1004 ft 162 kts 231°
2026-05-08 21:20 22.42931 -72.94743 908 ft 169 kts 226°
2026-05-08 21:21 22.42141 -72.95701 780 ft 170 kts 226°
2026-05-08 21:21 22.41342 -72.96529 687 ft 147 kts 220°
2026-05-08 21:21 22.40652 -72.97272 534 ft 134 kts 224°
2026-05-08 21:21 22.40124 -72.97987 389 ft 117 kts 227°
2026-05-08 21:22 22.39617 -72.98674 271 ft 115 kts 234°
2026-05-08 21:22 22.39179 -72.99388 217 ft 115 kts 234°
2026-05-08 21:22 22.38708 -73.00113 131 ft 117 kts 233°
2026-05-08 21:22 22.38295 -73.00782 6 ft 92 kts 232°
2026-05-08 21:23 22.38015 -73.01222 7 ft 46 kts 230°
2026-05-08 21:23 22.37891 -73.01407 8 ft 24 kts 245°
2026-05-08 21:23 22.37909 -73.01512 7 ft 16 kts 345°
2026-05-08 21:23 22.37913 -73.01526 7 ft 0 kts 167°
2026-05-08 21:37 22.37911 -73.01525 7 ft 3 kts 166°
2026-05-08 21:37 22.37828 -73.01523 8 ft 16 kts 239°
2026-05-08 21:37 22.37709 -73.01710 6 ft 50 kts 233°
2026-05-08 21:37 22.37526 -73.01995 5 ft 24 kts 287°
2026-05-08 21:38 22.37558 -73.01988 5 ft 9 kts 62°
2026-05-08 21:38 22.37719 -73.01692 6 ft 78 kts 55°
2026-05-08 21:38 22.38117 -73.01096 20 ft 115 kts 53°
2026-05-08 21:38 22.38677 -73.00312 47 ft 143 kts 54°
2026-05-08 21:39 22.38609 -72.99437 592 ft 120 kts 107°
2026-05-08 21:39 22.38471 -72.98540 840 ft 124 kts 96°
2026-05-08 21:39 22.38361 -72.97489 768 ft 157 kts 78°
2026-05-08 21:39 22.38429 -72.96289 823 ft 164 kts 94°
2026-05-08 21:40 22.38069 -72.95107 957 ft 165 kts 116°
2026-05-08 21:40 22.37428 -72.94121 1327 ft 156 kts 124°
2026-05-08 21:40 22.36766 -72.93226 1713 ft 149 kts 124°
2026-05-08 21:41 22.35404 -72.91639 2419 ft 142 kts 131°
2026-05-08 21:41 22.34713 -72.90864 2766 ft 143 kts 131°
2026-05-08 21:41 22.34045 -72.90060 3149 ft 142 kts 129°
2026-05-08 21:41 22.33395 -72.89253 3485 ft 144 kts 129°
2026-05-08 21:42 22.32744 -72.88436 3829 ft 145 kts 128°
2026-05-08 21:42 22.32087 -72.87612 4175 ft 145 kts 128°
2026-05-08 21:42 22.31428 -72.86782 4508 ft 146 kts 127°
2026-05-08 21:42 22.30762 -72.85951 4841 ft 147 kts 128°
2026-05-08 21:43 22.30092 -72.85111 5156 ft 148 kts 127°
2026-05-08 21:43 22.29420 -72.84267 5492 ft 148 kts 127°
2026-05-08 21:43 22.28743 -72.83421 5820 ft 150 kts 128°
2026-05-08 21:43 22.28060 -72.82566 6153 ft 151 kts 128°
2026-05-08 21:44 22.27375 -72.81707 6485 ft 151 kts 127°
2026-05-08 21:44 22.26689 -72.80849 6813 ft 151 kts 127°
2026-05-08 21:44 22.26001 -72.79988 7130 ft 152 kts 127°
2026-05-08 21:44 22.25310 -72.79122 7455 ft 152 kts 127°
2026-05-08 21:45 22.24616 -72.78254 7767 ft 153 kts 127°
2026-05-08 21:45 22.23916 -72.77378 8081 ft 154 kts 127°
2026-05-08 21:45 22.23213 -72.76499 8404 ft 155 kts 127°
2026-05-08 21:45 22.22507 -72.75615 8726 ft 156 kts 127°
2026-05-08 21:46 22.21797 -72.74728 9049 ft 156 kts 127°
2026-05-08 21:46 22.21082 -72.73834 9371 ft 158 kts 127°
2026-05-08 21:46 22.20364 -72.72935 9712 ft 158 kts 127°
2026-05-08 21:46 22.19653 -72.72047 10012 ft 159 kts 127°
2026-05-08 21:47 22.18928 -72.71141 10295 ft 160 kts 126°
2026-05-08 21:47 22.18196 -72.70226 10583 ft 161 kts 126°
2026-05-08 21:47 22.17459 -72.69306 10874 ft 163 kts 126°
2026-05-08 21:47 22.16718 -72.68380 11166 ft 164 kts 126°
2026-05-08 21:48 22.15970 -72.67445 11456 ft 165 kts 126°
2026-05-08 21:48 22.15216 -72.66504 11750 ft 166 kts 126°
2026-05-08 21:48 22.14456 -72.65555 12041 ft 168 kts 126°
2026-05-08 21:48 22.13690 -72.64598 12334 ft 169 kts 125°
2026-05-08 21:49 22.12918 -72.63635 12629 ft 170 kts 125°
2026-05-08 21:49 22.12140 -72.62664 12925 ft 171 kts 125°
2026-05-08 21:49 22.11357 -72.61687 13227 ft 173 kts 125°
2026-05-08 21:49 22.10568 -72.60704 13532 ft 174 kts 125°
2026-05-08 21:50 22.09783 -72.59724 13809 ft 176 kts 124°
2026-05-08 21:50 22.08977 -72.58719 14073 ft 178 kts 124°
2026-05-08 21:50 22.08164 -72.57706 14330 ft 179 kts 124°
2026-05-08 21:50 22.07345 -72.56686 14592 ft 181 kts 124°
2026-05-08 21:51 22.06518 -72.55656 14853 ft 183 kts 124°
2026-05-08 21:51 22.05684 -72.54616 15114 ft 184 kts 124°
2026-05-08 21:51 22.04842 -72.53567 15379 ft 186 kts 124°
2026-05-08 21:51 22.03983 -72.52513 15647 ft 188 kts 124°
2026-05-08 21:52 22.03123 -72.51447 15912 ft 189 kts 124°
2026-05-08 21:52 22.02265 -72.50367 16178 ft 191 kts 124°
2026-05-08 21:52 22.01397 -72.49279 16443 ft 192 kts 124°
2026-05-08 21:52 22.00518 -72.48185 16708 ft 194 kts 124°
2026-05-08 21:53 21.99630 -72.47080 16977 ft 195 kts 124°
2026-05-08 21:53 21.98735 -72.45967 17247 ft 197 kts 124°
2026-05-08 21:53 21.97845 -72.44860 17513 ft 199 kts 124°
2026-05-08 21:53 21.96938 -72.43731 17784 ft 200 kts 124°
2026-05-08 21:54 21.96020 -72.42588 18001 ft 205 kts 123°
2026-05-08 21:54 21.95058 -72.41376 18010 ft 219 kts 124°
2026-05-08 21:54 21.94040 -72.40097 18017 ft 230 kts 124°
2026-05-08 21:54 21.92975 -72.38765 18015 ft 239 kts 124°
2026-05-08 21:55 21.91874 -72.37388 18012 ft 245 kts 124°
2026-05-08 21:55 21.90752 -72.35983 18012 ft 250 kts 124°
2026-05-08 21:55 21.89607 -72.34556 18010 ft 253 kts 125°
2026-05-08 21:56 21.87278 -72.31660 17996 ft 258 kts 125°
2026-05-08 21:56 21.86100 -72.30197 17992 ft 259 kts 125°
2026-05-08 21:56 21.84914 -72.28727 17990 ft 260 kts 125°
2026-05-08 21:56 21.83727 -72.27254 17989 ft 261 kts 125°
2026-05-08 21:57 21.82537 -72.25777 17989 ft 261 kts 125°
2026-05-08 21:57 21.81363 -72.24325 17993 ft 262 kts 125°
2026-05-08 21:57 21.80167 -72.22842 17993 ft 262 kts 125°
2026-05-08 21:57 21.78969 -72.21358 17993 ft 262 kts 125°
2026-05-08 21:58 21.77775 -72.19878 17993 ft 261 kts 125°
2026-05-08 21:58 21.76581 -72.18403 17993 ft 261 kts 125°
2026-05-08 21:58 21.75389 -72.16928 17993 ft 261 kts 125°
2026-05-08 21:58 21.74200 -72.15453 17992 ft 261 kts 125°
2026-05-08 21:59 21.73011 -72.13977 17991 ft 261 kts 125°
2026-05-08 21:59 21.71822 -72.12506 17990 ft 261 kts 125°
2026-05-08 21:59 21.70628 -72.11033 17989 ft 261 kts 125°
2026-05-08 21:59 21.69437 -72.09565 17989 ft 261 kts 125°
2026-05-08 22:00 21.68251 -72.08095 17993 ft 260 kts 124°
2026-05-08 22:00 21.67069 -72.06622 17993 ft 260 kts 124°
2026-05-08 22:00 21.65883 -72.05154 17994 ft 260 kts 125°
2026-05-08 22:00 21.64692 -72.03686 17995 ft 260 kts 125°
2026-05-08 22:01 21.63517 -72.02238 17990 ft 260 kts 125°
2026-05-08 22:01 21.62324 -72.00771 17989 ft 260 kts 125°
2026-05-08 22:01 21.61132 -71.99305 17989 ft 260 kts 125°
2026-05-08 22:01 21.59940 -71.97840 17990 ft 261 kts 125°
2026-05-08 22:02 21.58748 -71.96374 17991 ft 261 kts 125°
2026-05-08 22:02 21.57555 -71.94906 17989 ft 261 kts 125°
2026-05-08 22:02 21.56359 -71.93436 17990 ft 261 kts 125°
2026-05-08 22:02 21.55164 -71.91967 17990 ft 261 kts 125°
2026-05-08 22:03 21.53969 -71.90496 17987 ft 261 kts 125°
2026-05-08 22:03 21.52770 -71.89022 17986 ft 261 kts 125°
2026-05-08 22:03 21.51575 -71.87552 17986 ft 262 kts 125°
2026-05-08 22:03 21.50378 -71.86081 17987 ft 262 kts 125°
2026-05-08 22:04 21.49182 -71.84609 17988 ft 262 kts 125°
2026-05-08 22:04 21.47988 -71.83140 17991 ft 262 kts 125°
2026-05-08 22:04 21.46790 -71.81668 17992 ft 261 kts 125°
2026-05-08 22:04 21.45594 -71.80198 17993 ft 261 kts 125°
2026-05-08 22:05 21.44397 -71.78728 17993 ft 261 kts 125°
2026-05-08 22:05 21.43200 -71.77258 17991 ft 261 kts 125°
2026-05-08 22:05 21.42005 -71.75788 17990 ft 261 kts 125°
2026-05-08 22:05 21.40810 -71.74319 17989 ft 261 kts 125°
2026-05-08 22:06 21.39629 -71.72868 17987 ft 261 kts 125°
2026-05-08 22:06 21.38434 -71.71401 17986 ft 261 kts 125°
2026-05-08 22:06 21.37239 -71.69934 17987 ft 261 kts 125°
2026-05-08 22:06 21.36044 -71.68468 17988 ft 261 kts 125°
2026-05-08 22:07 21.34851 -71.67004 17989 ft 261 kts 125°
2026-05-08 22:07 21.33654 -71.65539 17990 ft 261 kts 126°
2026-05-08 22:07 21.32414 -71.64111 17993 ft 262 kts 128°
2026-05-08 22:07 21.31190 -71.62659 17998 ft 262 kts 125°
2026-05-08 22:08 21.30006 -71.61174 17996 ft 262 kts 125°
2026-05-08 22:08 21.28810 -71.59689 17990 ft 263 kts 126°
2026-05-08 22:08 21.27601 -71.58213 17986 ft 263 kts 126°
2026-05-08 22:08 21.26392 -71.56738 17987 ft 263 kts 126°
2026-05-08 22:09 21.25187 -71.55265 17991 ft 263 kts 126°
2026-05-08 22:09 21.23977 -71.53783 17988 ft 263 kts 126°
2026-05-08 22:09 21.22769 -71.52308 17991 ft 263 kts 126°
2026-05-08 22:09 21.21561 -71.50831 17990 ft 263 kts 126°
2026-05-08 22:10 21.20352 -71.49354 17990 ft 263 kts 126°
2026-05-08 22:10 21.19143 -71.47877 17989 ft 264 kts 126°
2026-05-08 22:10 21.17935 -71.46401 17989 ft 264 kts 126°
2026-05-08 22:10 21.16725 -71.44924 17991 ft 264 kts 126°
2026-05-08 22:11 21.15513 -71.43445 17989 ft 264 kts 126°
2026-05-08 22:11 21.14318 -71.41985 17986 ft 264 kts 126°
2026-05-08 22:11 21.13104 -71.40506 17988 ft 264 kts 126°
2026-05-08 22:11 21.11892 -71.39029 17987 ft 264 kts 126°
2026-05-08 22:12 21.10680 -71.37551 17986 ft 264 kts 126°
2026-05-08 22:12 21.09469 -71.36075 17987 ft 264 kts 126°
2026-05-08 22:12 21.08259 -71.34600 17988 ft 264 kts 126°
2026-05-08 22:12 21.07046 -71.33122 17986 ft 264 kts 126°
2026-05-08 22:13 21.05832 -71.31642 17986 ft 264 kts 126°
2026-05-08 22:13 21.04619 -71.30166 17989 ft 263 kts 126°
2026-05-08 22:13 21.03408 -71.28693 17987 ft 263 kts 126°
2026-05-08 22:13 21.02203 -71.27219 17985 ft 263 kts 126°
2026-05-08 22:14 21.00992 -71.25748 17991 ft 263 kts 126°
2026-05-08 22:14 20.99796 -71.24299 17989 ft 263 kts 126°
2026-05-08 22:14 20.98589 -71.22830 17983 ft 263 kts 126°
2026-05-08 22:14 20.97386 -71.21356 17986 ft 263 kts 126°
2026-05-08 22:15 20.96174 -71.19889 17984 ft 263 kts 126°
2026-05-08 22:15 20.94960 -71.18422 17983 ft 263 kts 126°
2026-05-08 22:15 20.93755 -71.16956 17986 ft 263 kts 126°
2026-05-08 22:15 20.92541 -71.15482 17984 ft 263 kts 126°
2026-05-08 22:16 20.91331 -71.14015 17983 ft 263 kts 126°
2026-05-08 22:16 20.90123 -71.12549 17986 ft 263 kts 126°
2026-05-08 22:16 20.88914 -71.11082 17984 ft 263 kts 126°
2026-05-08 22:16 20.87705 -71.09615 17983 ft 263 kts 126°
2026-05-08 22:17 20.86494 -71.08147 17985 ft 263 kts 126°
2026-05-08 22:17 20.85286 -71.06682 17984 ft 263 kts 126°
2026-05-08 22:17 20.84076 -71.05216 17983 ft 263 kts 126°
2026-05-08 22:17 20.82867 -71.03751 17985 ft 263 kts 126°
2026-05-08 22:18 20.82067 -71.02782 17983 ft 263 kts 126°
2026-05-08 22:18 20.80463 -71.00839 17983 ft 263 kts 126°
2026-05-08 22:18 20.79254 -70.99375 17984 ft 263 kts 126°
2026-05-08 22:18 20.78044 -70.97910 17985 ft 263 kts 126°
2026-05-08 22:19 20.76833 -70.96445 17983 ft 263 kts 126°
2026-05-08 22:19 20.76015 -70.95455 17984 ft 263 kts 126°
2026-05-08 22:19 20.74818 -70.94008 17983 ft 263 kts 126°
2026-05-08 22:19 20.73609 -70.92546 17986 ft 263 kts 126°
2026-05-08 22:20 20.72399 -70.91083 17984 ft 263 kts 126°
2026-05-08 22:20 20.71188 -70.89619 17983 ft 263 kts 126°
2026-05-08 22:20 20.69978 -70.88156 17985 ft 263 kts 126°
2026-05-08 22:20 20.68766 -70.86692 17980 ft 263 kts 126°
2026-05-08 22:21 20.67553 -70.85227 17983 ft 263 kts 126°
2026-05-08 22:21 20.66341 -70.83764 17981 ft 263 kts 126°
2026-05-08 22:21 20.65129 -70.82301 17980 ft 263 kts 126°
2026-05-08 22:21 20.63917 -70.80838 17983 ft 263 kts 126°
2026-05-08 22:22 20.62706 -70.79378 17981 ft 263 kts 126°
2026-05-08 22:22 20.61493 -70.77915 17980 ft 263 kts 126°
2026-05-08 22:22 20.60281 -70.76454 17983 ft 263 kts 126°
2026-05-08 22:22 20.59072 -70.74996 17981 ft 263 kts 126°
2026-05-08 22:23 20.57859 -70.73534 17985 ft 263 kts 126°
2026-05-08 22:23 20.56647 -70.72074 17989 ft 263 kts 126°
2026-05-08 22:23 20.55450 -70.70632 17987 ft 263 kts 126°
2026-05-08 22:23 20.54237 -70.69172 17985 ft 263 kts 126°
2026-05-08 22:24 20.53025 -70.67712 17989 ft 263 kts 126°
2026-05-08 22:24 20.51815 -70.66256 17987 ft 263 kts 126°
2026-05-08 22:24 20.50601 -70.64795 17985 ft 263 kts 126°
2026-05-08 22:24 20.49388 -70.63335 17989 ft 263 kts 126°
2026-05-08 22:25 20.48172 -70.61873 17984 ft 263 kts 126°
2026-05-08 22:25 20.46958 -70.60413 17983 ft 263 kts 126°
2026-05-08 22:25 20.45745 -70.58955 17985 ft 263 kts 126°
2026-05-08 22:25 20.44532 -70.57498 17984 ft 263 kts 126°
2026-05-08 22:26 20.43318 -70.56039 17983 ft 263 kts 126°
2026-05-08 22:26 20.42102 -70.54579 17986 ft 263 kts 126°
2026-05-08 22:26 20.40888 -70.53120 17983 ft 263 kts 126°
2026-05-08 22:26 20.39672 -70.51661 17986 ft 263 kts 126°
2026-05-08 22:27 20.38455 -70.50200 17984 ft 264 kts 126°
2026-05-08 22:27 20.37237 -70.48739 17983 ft 264 kts 126°
2026-05-08 22:27 20.36020 -70.47279 17986 ft 264 kts 126°
2026-05-08 22:27 20.34801 -70.45816 17984 ft 264 kts 126°
2026-05-08 22:28 20.33598 -70.44374 17986 ft 264 kts 126°
2026-05-08 22:28 20.32379 -70.42913 17988 ft 264 kts 126°
2026-05-08 22:28 20.31161 -70.41453 17986 ft 264 kts 126°
2026-05-08 22:28 20.29933 -70.40001 17986 ft 264 kts 127°
2026-05-08 22:29 20.28712 -70.38540 17986 ft 264 kts 126°
2026-05-08 22:29 20.27501 -70.37074 17988 ft 264 kts 126°
2026-05-08 22:29 20.26283 -70.35611 17985 ft 264 kts 126°
2026-05-08 22:29 20.25059 -70.34156 17984 ft 264 kts 127°
2026-05-08 22:30 20.23790 -70.32735 17989 ft 265 kts 129°
2026-05-08 22:30 20.22523 -70.31336 17989 ft 265 kts 128°
2026-05-08 22:30 20.21241 -70.29903 17987 ft 265 kts 128°
2026-05-08 22:30 20.19976 -70.28483 17986 ft 265 kts 128°
2026-05-08 22:31 20.18709 -70.27064 17985 ft 265 kts 128°
2026-05-08 22:31 20.17440 -70.25644 17984 ft 265 kts 128°
2026-05-08 22:31 20.16168 -70.24222 17983 ft 265 kts 128°
2026-05-08 22:31 20.14899 -70.22809 17985 ft 263 kts 128°
2026-05-08 22:32 20.13636 -70.21398 17983 ft 262 kts 128°
2026-05-08 22:32 20.12380 -70.19995 17988 ft 262 kts 128°
2026-05-08 22:32 20.11124 -70.18593 17983 ft 261 kts 128°
2026-05-08 22:32 20.09870 -70.17192 17981 ft 261 kts 128°
2026-05-08 22:33 20.08616 -70.15792 17983 ft 261 kts 128°
2026-05-08 22:33 20.07363 -70.14394 17986 ft 261 kts 128°
2026-05-08 22:33 20.06111 -70.12997 17984 ft 261 kts 128°
2026-05-08 22:33 20.04858 -70.11599 17983 ft 261 kts 128°
2026-05-08 22:34 20.03623 -70.10221 17983 ft 261 kts 128°
2026-05-08 22:34 20.02353 -70.08805 17986 ft 261 kts 128°
2026-05-08 22:34 20.01102 -70.07411 17984 ft 261 kts 128°
2026-05-08 22:34 19.99864 -70.06031 17984 ft 261 kts 128°
2026-05-08 22:35 19.98613 -70.04637 17984 ft 261 kts 128°
2026-05-08 22:35 19.97360 -70.03241 17983 ft 261 kts 128°
2026-05-08 22:35 19.96109 -70.01847 17985 ft 260 kts 128°
2026-05-08 22:35 19.94859 -70.00455 17984 ft 260 kts 128°
2026-05-08 22:36 19.93608 -69.99064 17983 ft 260 kts 128°
2026-05-08 22:36 19.92360 -69.97675 17986 ft 260 kts 128°
2026-05-08 22:36 19.91113 -69.96287 17984 ft 260 kts 128°
2026-05-08 22:36 19.89862 -69.94896 17983 ft 260 kts 128°
2026-05-08 22:37 19.88613 -69.93506 17989 ft 260 kts 128°
2026-05-08 22:37 19.87363 -69.92118 17987 ft 260 kts 128°
2026-05-08 22:37 19.86131 -69.90747 17987 ft 260 kts 128°
2026-05-08 22:37 19.84881 -69.89358 17986 ft 260 kts 128°
2026-05-08 22:38 19.83632 -69.87971 17986 ft 260 kts 128°
2026-05-08 22:38 19.82379 -69.86578 17989 ft 260 kts 128°
2026-05-08 22:38 19.81130 -69.85190 17987 ft 260 kts 128°
2026-05-08 22:38 19.79878 -69.83800 17986 ft 260 kts 128°
2026-05-08 22:39 19.78628 -69.82414 17988 ft 260 kts 128°
2026-05-08 22:39 19.77378 -69.81027 17987 ft 260 kts 128°
2026-05-08 22:39 19.76131 -69.79643 17986 ft 260 kts 128°
2026-05-08 22:39 19.74884 -69.78256 17989 ft 260 kts 128°
2026-05-08 22:40 19.73635 -69.76869 17987 ft 260 kts 128°
2026-05-08 22:40 19.72382 -69.75488 17988 ft 260 kts 128°
2026-05-08 22:40 19.71128 -69.74104 17991 ft 260 kts 128°
2026-05-08 22:40 19.69880 -69.72717 17990 ft 260 kts 128°
2026-05-08 22:41 19.68632 -69.71330 17989 ft 260 kts 128°
2026-05-08 22:41 19.67381 -69.69944 17983 ft 260 kts 128°
2026-05-08 22:41 19.66130 -69.68560 17986 ft 260 kts 128°
2026-05-08 22:41 19.64879 -69.67176 17984 ft 260 kts 128°
2026-05-08 22:42 19.63628 -69.65791 17989 ft 260 kts 128°
2026-05-08 22:42 19.62379 -69.64409 17990 ft 260 kts 128°
2026-05-08 22:42 19.61129 -69.63026 17990 ft 259 kts 128°
2026-05-08 22:42 19.59879 -69.61644 17989 ft 259 kts 128°
2026-05-08 22:43 19.58632 -69.60262 17989 ft 259 kts 128°
2026-05-08 22:43 19.57391 -69.58881 17992 ft 259 kts 128°
2026-05-08 22:43 19.56145 -69.57504 17988 ft 259 kts 128°
2026-05-08 22:43 19.54894 -69.56132 17988 ft 259 kts 128°
2026-05-08 22:44 19.53645 -69.54755 17993 ft 259 kts 128°
2026-05-08 22:44 19.52399 -69.53378 17987 ft 259 kts 128°
2026-05-08 22:44 19.51167 -69.52017 17992 ft 259 kts 128°
2026-05-08 22:44 19.49919 -69.50639 17982 ft 259 kts 128°
2026-05-08 22:45 19.48673 -69.49265 17983 ft 259 kts 128°
2026-05-08 22:45 19.47425 -69.47889 17979 ft 259 kts 128°
2026-05-08 22:45 19.46179 -69.46514 17976 ft 259 kts 128°
2026-05-08 22:45 19.44934 -69.45141 17978 ft 258 kts 128°
2026-05-08 22:46 19.43686 -69.43765 17976 ft 258 kts 128°
2026-05-08 22:46 19.42442 -69.42394 17973 ft 258 kts 128°
2026-05-08 22:46 19.41196 -69.41021 17975 ft 258 kts 128°
2026-05-08 22:46 19.39950 -69.39649 17972 ft 258 kts 128°
2026-05-08 22:47 19.38704 -69.38276 17969 ft 258 kts 128°
2026-05-08 22:47 19.37459 -69.36905 17993 ft 258 kts 128°
2026-05-08 22:47 19.36215 -69.35535 17993 ft 258 kts 128°
2026-05-08 22:47 19.34971 -69.34166 17992 ft 258 kts 128°
2026-05-08 22:48 19.33726 -69.32796 17991 ft 258 kts 128°
2026-05-08 22:48 19.32498 -69.31445 17994 ft 258 kts 128°
2026-05-08 22:48 19.31252 -69.30074 17991 ft 259 kts 128°
2026-05-08 22:48 19.30006 -69.28702 17993 ft 258 kts 128°
2026-05-08 22:49 19.28757 -69.27331 17990 ft 258 kts 128°
2026-05-08 22:49 19.26261 -69.24588 17994 ft 258 kts 128°
2026-05-08 22:49 19.25012 -69.23216 17994 ft 259 kts 128°
2026-05-08 22:50 19.23764 -69.21846 17992 ft 258 kts 129°
2026-05-08 22:50 19.22518 -69.20477 17991 ft 258 kts 128°
2026-05-08 22:50 19.21278 -69.19112 17992 ft 257 kts 129°
2026-05-08 22:50 19.20058 -69.17768 17991 ft 257 kts 129°
2026-05-08 22:51 19.18815 -69.16411 17992 ft 257 kts 129°
2026-05-08 22:51 19.17576 -69.15055 17991 ft 256 kts 129°
2026-05-08 22:51 19.16339 -69.13696 17994 ft 256 kts 129°
2026-05-08 22:51 19.15102 -69.12338 17995 ft 256 kts 129°
2026-05-08 22:52 19.13865 -69.10983 17994 ft 256 kts 129°
2026-05-08 22:52 19.12625 -69.09624 17997 ft 256 kts 129°
2026-05-08 22:52 19.11389 -69.08269 17995 ft 256 kts 129°
2026-05-08 22:52 19.10152 -69.06914 17994 ft 256 kts 129°
2026-05-08 22:53 19.08916 -69.05561 17994 ft 256 kts 129°
2026-05-08 22:53 19.07680 -69.04206 17992 ft 256 kts 129°
2026-05-08 22:53 19.06443 -69.02852 17992 ft 256 kts 129°
2026-05-08 22:53 19.05207 -69.01498 17968 ft 257 kts 129°
2026-05-08 22:54 19.03947 -69.00102 17622 ft 266 kts 129°
2026-05-08 22:54 19.02657 -68.98673 17162 ft 269 kts 129°
2026-05-08 22:54 19.01375 -68.97277 16689 ft 267 kts 130°
2026-05-08 22:54 19.00087 -68.95875 16223 ft 265 kts 130°
2026-05-08 22:55 18.98798 -68.94465 15760 ft 262 kts 130°
2026-05-08 22:55 18.97551 -68.93101 15309 ft 260 kts 130°
2026-05-08 22:55 18.96301 -68.91736 14860 ft 258 kts 130°
2026-05-08 22:55 18.95058 -68.90378 14423 ft 256 kts 130°
2026-05-08 22:56 18.93827 -68.89033 13988 ft 253 kts 129°
2026-05-08 22:56 18.92606 -68.87699 13522 ft 251 kts 129°
2026-05-08 22:56 18.91399 -68.86381 13037 ft 249 kts 130°
2026-05-08 22:56 18.90195 -68.85068 12560 ft 247 kts 130°
2026-05-08 22:57 18.89008 -68.83772 12088 ft 244 kts 130°
2026-05-08 22:57 18.87828 -68.82487 11623 ft 242 kts 130°
2026-05-08 22:57 18.86659 -68.81216 11165 ft 240 kts 130°
2026-05-08 22:57 18.85493 -68.79966 10715 ft 237 kts 133°
2026-05-08 22:58 18.84297 -68.78786 10297 ft 234 kts 133°
2026-05-08 22:58 18.83182 -68.77586 9959 ft 229 kts 130°
2026-05-08 22:58 18.82104 -68.76375 9584 ft 224 kts 130°
2026-05-08 22:58 18.81032 -68.75195 9201 ft 221 kts 131°
2026-05-08 22:59 18.79962 -68.74030 8832 ft 223 kts 131°
2026-05-08 22:59 18.78876 -68.72849 8462 ft 224 kts 131°
2026-05-08 22:59 18.77790 -68.71668 8102 ft 224 kts 131°
2026-05-08 22:59 18.76707 -68.70488 7744 ft 223 kts 131°
2026-05-08 23:00 18.75631 -68.69316 7386 ft 222 kts 131°
2026-05-08 23:00 18.74560 -68.68153 7035 ft 220 kts 131°
2026-05-08 23:00 18.73500 -68.66996 6685 ft 219 kts 130°
2026-05-08 23:00 18.72449 -68.65845 6335 ft 217 kts 131°
2026-05-08 23:01 18.71412 -68.64720 5970 ft 216 kts 132°
2026-05-08 23:01 18.70371 -68.63592 5604 ft 213 kts 132°
2026-05-08 23:01 18.69339 -68.62471 5238 ft 213 kts 132°
2026-05-08 23:01 18.68311 -68.61354 4880 ft 211 kts 131°
2026-05-08 23:02 18.67296 -68.60251 4512 ft 209 kts 131°
2026-05-08 23:02 18.66288 -68.59157 4144 ft 207 kts 131°
2026-05-08 23:02 18.65288 -68.58067 3775 ft 206 kts 132°
2026-05-08 23:02 18.64286 -68.56984 3432 ft 206 kts 134°
2026-05-08 23:03 18.63096 -68.56171 3141 ft 206 kts 157°
2026-05-08 23:03 18.61697 -68.55865 2853 ft 205 kts 173°
2026-05-08 23:03 18.60274 -68.55748 2565 ft 204 kts 172°
2026-05-08 23:03 18.58893 -68.55604 2405 ft 197 kts 171°
2026-05-08 23:04 18.57656 -68.55362 2388 ft 161 kts 154°
2026-05-08 23:04 18.56785 -68.54849 2377 ft 130 kts 137°
2026-05-08 23:04 18.56191 -68.54252 2331 ft 107 kts 123°
2026-05-08 23:04 18.55771 -68.53567 2311 ft 116 kts 113°
2026-05-08 23:05 18.55489 -68.52743 2325 ft 124 kts 101°
2026-05-08 23:05 18.55401 -68.51823 2338 ft 128 kts 87°
2026-05-08 23:05 18.55455 -68.51200 2347 ft 129 kts 83°
2026-05-08 23:05 18.55536 -68.50238 2291 ft 136 kts 85°
2026-05-08 23:06 18.55623 -68.49213 2131 ft 144 kts 85°
2026-05-08 23:06 18.55714 -68.48156 1943 ft 145 kts 84°
2026-05-08 23:06 18.55803 -68.47110 1751 ft 140 kts 84°
2026-05-08 23:06 18.55891 -68.46129 1564 ft 129 kts 84°
2026-05-08 23:07 18.55967 -68.45244 1391 ft 117 kts 82°
2026-05-08 23:07 18.56042 -68.44403 1243 ft 112 kts 83°
2026-05-08 23:07 18.56110 -68.43601 1112 ft 107 kts 82°
2026-05-08 23:07 18.56180 -68.42794 995 ft 118 kts 83°
2026-05-08 23:08 18.56260 -68.41889 836 ft 128 kts 82°
2026-05-08 23:08 18.56347 -68.40939 673 ft 129 kts 83°
2026-05-08 23:08 18.56421 -68.40031 512 ft 112 kts 84°
2026-05-08 23:08 18.56482 -68.39274 356 ft 105 kts 84°
2026-05-08 23:09 18.56553 -68.38508 210 ft 107 kts 84°
2026-05-08 23:09 18.56613 -68.37755 70 ft 100 kts 84°
2026-05-08 23:09 18.56665 -68.37175 46 ft 51 kts 83°
2026-05-08 23:09 18.56686 -68.36874 47 ft 32 kts 81°
2026-05-08 23:10 18.56610 -68.36755 46 ft 24 kts 184°
2026-05-08 23:10 18.56519 -68.36810 45 ft 19 kts 262°
2026-05-08 23:10 18.56508 -68.36957 45 ft 13 kts 267°
2026-05-08 23:10 18.56508 -68.36970 45 ft 0 kts 274°
2026-05-08 23:11 18.56508 -68.36974 45 ft 5 kts 271°
2026-05-08 23:11 18.56496 -68.37078 45 ft 15 kts 264°
2026-05-08 23:11 18.56487 -68.37179 45 ft 13 kts 265°
2026-05-08 23:11 18.56479 -68.37274 45 ft 16 kts 264°
2026-05-08 23:12 18.56467 -68.37423 45 ft 26 kts 266°
2026-05-08 23:12 18.56448 -68.37616 45 ft 20 kts 234°
2026-05-08 23:12 18.56358 -68.37595 44 ft 14 kts 82°
2026-05-08 23:12 18.56387 -68.37508 44 ft 13 kts 37°
2026-05-08 23:13 18.56420 -68.37438 45 ft 9 kts 87°
2026-05-08 23:13 18.56404 -68.37430 45 ft 2 kts 176°
2026-05-08 23:13 18.56403 -68.37430 45 ft 0 kts 176°
2026-05-08 23:21 18.56389 -68.37469 44 ft 17 kts 256°
2026-05-08 23:21 18.56359 -68.37564 44 ft 11 kts 260°
2026-05-08 23:21 18.56368 -68.37630 44 ft 8 kts 341°
2026-05-08 23:21 18.56437 -68.37656 45 ft 18 kts 294°
2026-05-08 23:22 18.56509 -68.37785 45 ft 16 kts 353°
2026-05-08 23:22 18.56617 -68.37675 46 ft 41 kts 81°
2026-05-08 23:22 18.56672 -68.37172 46 ft 93 kts 85°
2026-05-08 23:22 18.56687 -68.36457 281 ft 100 kts 86°
2026-05-08 23:23 18.56897 -68.35735 510 ft 121 kts 41°
2026-05-08 23:23 18.57695 -68.35805 904 ft 134 kts 307°
2026-05-08 23:23 18.57671 -68.36794 1192 ft 147 kts 251°
2026-05-08 23:23 18.57447 -68.37834 1582 ft 143 kts 262°
2026-05-08 23:24 18.57318 -68.38879 1978 ft 145 kts 262°
2026-05-08 23:24 18.57178 -68.39948 2318 ft 147 kts 261°
2026-05-08 23:24 18.57051 -68.40992 2755 ft 144 kts 263°
2026-05-08 23:24 18.56928 -68.42025 3149 ft 144 kts 270°
2026-05-08 23:25 18.57200 -68.43053 3537 ft 145 kts 295°
2026-05-08 23:25 18.57591 -68.44029 3975 ft 143 kts 295°
2026-05-08 23:25 18.57967 -68.45013 4333 ft 146 kts 294°
2026-05-08 23:25 18.58348 -68.46013 4724 ft 148 kts 293°
2026-05-08 23:26 18.58739 -68.47011 5139 ft 147 kts 295°
2026-05-08 23:26 18.59134 -68.48024 5477 ft 150 kts 294°
2026-05-08 23:26 18.59527 -68.49035 5898 ft 148 kts 294°
2026-05-08 23:26 18.59932 -68.50039 6285 ft 150 kts 294°
2026-05-08 23:27 18.60335 -68.51047 6635 ft 151 kts 294°
2026-05-08 23:27 18.60743 -68.52074 7008 ft 152 kts 294°
2026-05-08 23:27 18.61149 -68.53096 7386 ft 152 kts 295°
2026-05-08 23:27 18.61538 -68.54136 7752 ft 152 kts 294°
2026-05-08 23:28 18.61929 -68.55190 8014 ft 162 kts 294°
2026-05-08 23:28 18.62372 -68.56376 8031 ft 184 kts 294°
2026-05-08 23:28 18.62874 -68.57685 8031 ft 200 kts 294°
2026-05-08 23:28 18.63398 -68.59086 8029 ft 210 kts 293°
2026-05-08 23:29 18.63940 -68.60538 8027 ft 215 kts 293°
2026-05-08 23:29 18.64486 -68.62008 8024 ft 220 kts 293°
2026-05-08 23:29 18.65040 -68.63517 8023 ft 222 kts 292°
2026-05-08 23:29 18.65595 -68.65046 8024 ft 224 kts 293°
2026-05-08 23:30 18.66154 -68.66580 8021 ft 224 kts 292°
2026-05-08 23:30 18.66720 -68.68116 8021 ft 225 kts 293°
2026-05-08 23:30 18.67282 -68.69659 8023 ft 226 kts 293°
2026-05-08 23:30 18.67845 -68.71212 8022 ft 227 kts 292°
2026-05-08 23:31 18.68408 -68.72765 8022 ft 227 kts 293°
2026-05-08 23:31 18.68973 -68.74319 8021 ft 227 kts 292°
2026-05-08 23:31 18.69538 -68.75869 8018 ft 227 kts 293°
2026-05-08 23:31 18.70105 -68.77422 8014 ft 227 kts 293°
2026-05-08 23:32 18.70673 -68.78980 8010 ft 227 kts 293°
2026-05-08 23:32 18.71230 -68.80515 8009 ft 227 kts 293°
2026-05-08 23:32 18.71795 -68.82067 8010 ft 227 kts 293°
2026-05-08 23:32 18.72359 -68.83615 8015 ft 226 kts 293°
2026-05-08 23:33 18.72921 -68.85167 8013 ft 226 kts 292°
2026-05-08 23:33 18.73479 -68.86716 8011 ft 226 kts 292°
2026-05-08 23:33 18.74029 -68.88260 8011 ft 225 kts 293°
2026-05-08 23:33 18.74579 -68.89799 8006 ft 224 kts 292°
2026-05-08 23:34 18.75127 -68.91338 8009 ft 224 kts 292°
2026-05-08 23:34 18.75686 -68.92876 8009 ft 224 kts 293°
2026-05-08 23:34 18.76240 -68.94418 8007 ft 225 kts 293°
2026-05-08 23:34 18.76789 -68.95959 8016 ft 223 kts 293°
2026-05-08 23:35 18.77337 -68.97492 8011 ft 223 kts 293°
2026-05-08 23:35 18.77876 -68.99005 8014 ft 224 kts 293°
2026-05-08 23:35 18.78424 -69.00549 8010 ft 224 kts 293°
2026-05-08 23:35 18.78972 -69.02091 8009 ft 224 kts 292°
2026-05-08 23:36 18.79535 -69.03623 8009 ft 224 kts 293°
2026-05-08 23:36 18.80100 -69.05152 8008 ft 224 kts 293°
2026-05-08 23:36 18.80662 -69.06685 8006 ft 224 kts 293°
2026-05-08 23:36 18.81219 -69.08221 8012 ft 223 kts 292°
2026-05-08 23:37 18.81778 -69.09746 8008 ft 223 kts 293°
2026-05-08 23:37 18.82337 -69.11271 8008 ft 223 kts 293°
2026-05-08 23:37 18.82888 -69.12806 8006 ft 223 kts 293°
2026-05-08 23:37 18.83437 -69.14341 8004 ft 224 kts 293°
2026-05-08 23:38 18.84030 -69.15855 8006 ft 222 kts 296°
2026-05-08 23:38 18.84647 -69.17347 8008 ft 222 kts 296°
2026-05-08 23:38 18.85268 -69.18845 8004 ft 222 kts 295°
2026-05-08 23:38 18.85894 -69.20326 8006 ft 220 kts 296°
2026-05-08 23:39 18.86512 -69.21777 8003 ft 219 kts 296°
2026-05-08 23:39 18.87141 -69.23237 8006 ft 218 kts 296°
2026-05-08 23:39 18.87774 -69.24697 8006 ft 218 kts 296°
2026-05-08 23:39 18.88401 -69.26155 8006 ft 218 kts 296°
2026-05-08 23:40 18.89026 -69.27613 8003 ft 218 kts 296°
2026-05-08 23:40 18.89653 -69.29067 8004 ft 217 kts 296°
2026-05-08 23:40 18.90280 -69.30522 8004 ft 218 kts 296°
2026-05-08 23:40 18.90909 -69.31978 8002 ft 218 kts 296°
2026-05-08 23:41 18.91537 -69.33433 8002 ft 218 kts 296°
2026-05-08 23:41 18.92169 -69.34892 8015 ft 217 kts 296°
2026-05-08 23:41 18.92801 -69.36335 8020 ft 217 kts 296°
2026-05-08 23:41 18.93430 -69.37784 8021 ft 217 kts 296°
2026-05-08 23:42 18.94056 -69.39236 8019 ft 217 kts 296°
2026-05-08 23:42 18.94681 -69.40687 8018 ft 217 kts 297°
2026-05-08 23:42 18.95288 -69.42135 8015 ft 218 kts 296°
2026-05-08 23:42 18.95912 -69.43598 8013 ft 218 kts 298°
2026-05-08 23:43 18.96542 -69.45063 8010 ft 219 kts 296°
2026-05-08 23:43 18.97152 -69.46543 8011 ft 220 kts 296°
2026-05-08 23:43 18.97761 -69.48030 8008 ft 221 kts 296°
2026-05-08 23:43 18.98372 -69.49522 8005 ft 221 kts 296°
2026-05-08 23:44 18.98978 -69.51004 8006 ft 220 kts 296°
2026-05-08 23:44 18.99584 -69.52492 8006 ft 219 kts 296°
2026-05-08 23:44 19.00191 -69.53964 8003 ft 218 kts 296°
2026-05-08 23:44 19.00806 -69.55423 8001 ft 217 kts 296°
2026-05-08 23:45 19.01435 -69.56871 8002 ft 216 kts 297°
2026-05-08 23:45 19.02050 -69.58296 8002 ft 215 kts 295°
2026-05-08 23:45 19.02689 -69.59730 8000 ft 216 kts 298°
2026-05-08 23:45 19.03321 -69.61171 8005 ft 215 kts 297°
2026-05-08 23:46 19.03954 -69.62600 8006 ft 214 kts 297°
2026-05-08 23:46 19.04570 -69.64040 7997 ft 214 kts 297°
2026-05-08 23:46 19.05184 -69.65472 7998 ft 214 kts 296°
2026-05-08 23:46 19.05793 -69.66892 7996 ft 214 kts 296°
2026-05-08 23:47 19.06428 -69.68319 7993 ft 214 kts 296°
2026-05-08 23:47 19.07067 -69.69739 7992 ft 214 kts 296°
2026-05-08 23:47 19.07701 -69.71159 7992 ft 214 kts 297°
2026-05-08 23:47 19.08328 -69.72587 7995 ft 214 kts 296°
2026-05-08 23:48 19.08955 -69.74014 7991 ft 214 kts 297°
2026-05-08 23:48 19.09575 -69.75443 7990 ft 214 kts 296°
2026-05-08 23:48 19.10206 -69.76870 7992 ft 215 kts 298°
2026-05-08 23:48 19.10844 -69.78301 7989 ft 215 kts 297°
2026-05-08 23:49 19.11454 -69.79740 7992 ft 214 kts 297°
2026-05-08 23:49 19.12069 -69.81175 7989 ft 214 kts 295°
2026-05-08 23:49 19.12681 -69.82611 7990 ft 214 kts 296°
2026-05-08 23:49 19.13317 -69.84012 7985 ft 213 kts 301°
2026-05-08 23:50 19.14306 -69.85147 7992 ft 210 kts 322°
2026-05-08 23:50 19.15408 -69.86163 7995 ft 210 kts 316°
2026-05-08 23:50 19.16319 -69.87382 8000 ft 211 kts 306°
2026-05-08 23:50 19.17116 -69.88691 8001 ft 211 kts 305°
2026-05-08 23:51 19.17907 -69.89975 7998 ft 211 kts 306°
2026-05-08 23:51 19.18728 -69.91296 7995 ft 212 kts 305°
2026-05-08 23:51 19.19538 -69.92579 7993 ft 212 kts 305°
2026-05-08 23:51 19.20356 -69.93878 7995 ft 213 kts 304°
2026-05-08 23:52 19.21178 -69.95190 7994 ft 213 kts 306°
2026-05-08 23:52 19.21995 -69.96501 7997 ft 213 kts 306°
2026-05-08 23:52 19.22821 -69.97806 7995 ft 213 kts 304°
2026-05-08 23:52 19.23638 -69.99119 7997 ft 213 kts 304°
2026-05-08 23:53 19.24463 -70.00428 7998 ft 214 kts 306°
2026-05-08 23:53 19.25284 -70.01744 8001 ft 214 kts 305°
2026-05-08 23:53 19.26089 -70.03045 7999 ft 214 kts 304°
2026-05-08 23:53 19.26912 -70.04359 8000 ft 213 kts 306°
2026-05-08 23:54 19.27735 -70.05664 8005 ft 213 kts 305°
2026-05-08 23:54 19.28563 -70.06971 7994 ft 213 kts 304°
2026-05-08 23:54 19.29103 -70.07848 7993 ft 214 kts 305°
2026-05-08 23:55 19.31049 -70.10873 8001 ft 214 kts 307°
2026-05-08 23:55 19.31883 -70.12184 8005 ft 215 kts 305°
2026-05-08 23:55 19.32708 -70.13512 8006 ft 216 kts 306°
2026-05-08 23:55 19.33536 -70.14835 8006 ft 216 kts 305°
2026-05-08 23:56 19.34078 -70.15718 8011 ft 216 kts 304°
2026-05-08 23:56 19.34900 -70.17061 8010 ft 217 kts 305°
2026-05-08 23:56 19.35737 -70.18390 8008 ft 217 kts 307°
2026-05-08 23:56 19.36581 -70.19721 8010 ft 219 kts 306°
2026-05-08 23:57 19.37420 -70.21074 7997 ft 220 kts 306°
2026-05-08 23:57 19.38261 -70.22430 7997 ft 219 kts 305°
2026-05-08 23:57 19.39104 -70.23775 8000 ft 219 kts 305°
2026-05-08 23:57 19.39951 -70.25113 8001 ft 219 kts 307°
2026-05-08 23:58 19.40784 -70.26459 8000 ft 218 kts 304°
2026-05-08 23:58 19.41611 -70.27804 8000 ft 218 kts 305°
2026-05-08 23:58 19.42449 -70.29144 7999 ft 219 kts 306°
2026-05-08 23:58 19.43284 -70.30477 7993 ft 220 kts 305°
2026-05-08 23:59 19.44144 -70.31820 7991 ft 220 kts 306°
2026-05-08 23:59 19.44962 -70.33167 7995 ft 220 kts 304°
2026-05-08 23:59 19.45812 -70.34545 7990 ft 220 kts 306°
2026-05-08 23:59 19.46664 -70.35895 7991 ft 221 kts 306°
2026-05-09 00:00 19.47510 -70.37256 7985 ft 221 kts 306°
2026-05-09 00:00 19.48358 -70.38618 7990 ft 222 kts 307°
2026-05-09 00:00 19.49207 -70.39990 7989 ft 222 kts 304°
2026-05-09 00:00 19.50050 -70.41363 7991 ft 222 kts 305°
2026-05-09 00:01 19.50896 -70.42702 7995 ft 221 kts 307°
2026-05-09 00:01 19.51744 -70.44066 7996 ft 221 kts 306°
2026-05-09 00:01 19.52586 -70.45431 7990 ft 221 kts 304°
2026-05-09 00:01 19.53439 -70.46804 7873 ft 224 kts 305°
2026-05-09 00:02 19.54307 -70.48192 7755 ft 227 kts 305°
2026-05-09 00:02 19.55183 -70.49597 7655 ft 228 kts 305°
2026-05-09 00:02 19.56056 -70.51006 7537 ft 228 kts 305°
2026-05-09 00:02 19.56913 -70.52395 7419 ft 228 kts 305°
2026-05-09 00:03 19.57785 -70.53802 7302 ft 228 kts 306°
2026-05-09 00:03 19.58665 -70.55208 7185 ft 229 kts 307°
2026-05-09 00:03 19.59546 -70.56622 7069 ft 230 kts 306°
2026-05-09 00:03 19.60351 -70.58086 6951 ft 231 kts 294°
2026-05-09 00:04 19.60685 -70.59761 6836 ft 234 kts 274°
2026-05-09 00:04 19.60653 -70.61488 6723 ft 234 kts 269°
2026-05-09 00:04 19.60507 -70.63202 6600 ft 233 kts 263°
2026-05-09 00:04 19.60228 -70.64884 6490 ft 232 kts 259°
2026-05-09 00:05 19.59822 -70.66548 6373 ft 233 kts 254°
2026-05-09 00:05 19.59286 -70.68165 6246 ft 231 kts 248°
2026-05-09 00:05 19.58636 -70.69717 6129 ft 230 kts 244°
2026-05-09 00:05 19.57875 -70.71207 5999 ft 230 kts 239°
2026-05-09 00:06 19.57000 -70.72633 5886 ft 230 kts 233°
2026-05-09 00:06 19.56036 -70.73960 5762 ft 228 kts 229°
2026-05-09 00:06 19.54972 -70.75204 5636 ft 227 kts 224°
2026-05-09 00:06 19.53828 -70.76351 5512 ft 226 kts 220°
2026-05-09 00:07 19.52602 -70.77395 5364 ft 225 kts 214°
2026-05-09 00:07 19.51306 -70.78327 5222 ft 224 kts 208°
2026-05-09 00:07 19.49954 -70.79147 5079 ft 222 kts 203°
2026-05-09 00:07 19.48573 -70.79782 4905 ft 213 kts 192°
2026-05-09 00:08 19.47166 -70.79827 4637 ft 196 kts 168°
2026-05-09 00:08 19.45926 -70.79346 4363 ft 186 kts 146°
2026-05-09 00:08 19.44964 -70.78465 4090 ft 181 kts 127°
2026-05-09 00:08 19.44383 -70.77335 4012 ft 168 kts 108°
2026-05-09 00:09 19.44116 -70.76176 3858 ft 158 kts 103°
2026-05-09 00:09 19.43879 -70.75041 3544 ft 157 kts 96°
2026-05-09 00:09 19.43765 -70.73889 3229 ft 157 kts 101°
2026-05-09 00:09 19.43545 -70.72790 3032 ft 142 kts 102°
2026-05-09 00:10 19.43355 -70.71854 2892 ft 125 kts 103°
2026-05-09 00:10 19.43002 -70.71014 2650 ft 124 kts 106°
2026-05-09 00:10 19.42756 -70.70152 2428 ft 119 kts 111°
2026-05-09 00:10 19.42560 -70.69372 2235 ft 110 kts 106°
2026-05-09 00:11 19.42366 -70.68574 1878 ft 113 kts 99°
2026-05-09 00:11 19.42154 -70.67766 1489 ft 109 kts 92°
2026-05-09 00:11 19.42040 -70.67008 1304 ft 102 kts 95°
2026-05-09 00:11 19.41876 -70.66313 1143 ft 91 kts 102°
2026-05-09 00:12 19.41752 -70.65588 1035 ft 107 kts 97°
2026-05-09 00:12 19.41552 -70.64782 1016 ft 117 kts 98°
2026-05-09 00:12 19.41361 -70.63934 933 ft 120 kts 104°
2026-05-09 00:12 19.41183 -70.63069 850 ft 120 kts 103°
2026-05-09 00:13 19.41006 -70.62270 697 ft 101 kts 101°
2026-05-09 00:13 19.40857 -70.61592 584 ft 88 kts 102°
2026-05-09 00:13 19.40737 -70.61051 575 ft 63 kts 102°
2026-05-09 00:13 19.40649 -70.60646 571 ft 51 kts 102°
2026-05-09 00:14 19.40568 -70.60404 567 ft 4 kts 200°
2026-05-09 00:14 19.40477 -70.60439 572 ft 31 kts 192°
2026-05-09 00:14 19.40400 -70.60451 571 ft 10 kts 156°
2026-05-09 00:14 19.40391 -70.60464 568 ft 0 kts 22°